Location: Orange Harbor Mobile Home Park
(26.6923°N, 81.7937°W)
Time: 07:43:51
(UTC+00:00)

Meteor 1-11 Rocket - Pass Details

Date: 19 September 2020
Orbit: 830 x 917 km, 81.2° (Epoch: 29 October)

Event Time Altitude Azimuth Distance (km) Brightness Sun altitude
Rises 10:20:47 0° 348° (NNW) 3,475 6.9 -12.8°
Reaches altitude 10° 10:23:17 10° 345° (NNW) 2,521 6.1 -12.3°
Maximum altitude 10:28:54 61° 266° (W) 968 3.7 -11.0°
Drops below altitude 10° 10:34:22 10° 187° (S) 2,456 6.0 -9.8°
Sets 10:36:47 0° 183° (S) 3,378 6.7 -9.3°
